Simultaneous Nadir Overpasses (SNOs) Predictions

Prediction of SNOs between GOES-16 and NOAA-20 Satellite Orbit:

Table of predicted SNOs for the next 14.0 days since TLE Epoch: 2/7/2020
Index Date Time (GOES-16) GOES-16 Lat,Lon NOAA-20 Lat,Lon Distance(km) Time Diff (sec)
1 02/08/2020 06:38:47 0.06, -75.20 0.66, -77.99 317.32 80
2 02/09/2020 06:17:22 0.06, -75.20 -0.33, -73.46 199.32 80
3 02/10/2020 18:39:20 -0.07, -75.21 -0.85, -78.76 404.12 80
4 02/11/2020 18:23:15 -0.07, -75.22 0.14, -74.23 113.04 80
5 02/13/2020 06:45:04 0.07, -75.24 1.01, -79.50 485.88 80
6 02/14/2020 06:23:40 0.07, -75.25 0.02, -74.97 31.51 80
7 02/16/2020 18:29:17 -0.08, -75.28 -0.20, -75.74 53.24 64
8 02/17/2020 18:08:09 -0.08, -75.29 0.85, -71.22 464.76 80
9 02/19/2020 06:32:38 0.09, -75.32 0.36, -76.48 132.95 80
10 02/20/2020 06:11:14 0.09, -75.33 -0.69, -71.96 385.22 80




NCC Satellite Simultaneous Nadir Overpasses (SNOs) Prediction Service
